Weather History for Thedford, NE

Change the Weather History Date:

Monday, July 8, 2013

  Actual Average (KLBF) Record (KLBF)
Temperature  
Mean Temperature 78 °F 74 °F  
Max Temperature 94 °F 88 °F 105 °F (1985)
Min Temperature 62 °F 60 °F 40 °F (1952)
Degree Days  
Heating Degree Days 0 0  
Month to date heating degree days 0  
Since 1 June heating degree days 51  
Since 1 July heating degree days 0  
Cooling Degree Days 13 9  
Month to date cooling degree days 69  
Year to date cooling degree days 235  
Since 1 June cooling degree days 207  
Growing Degree Days 28 (Base 50)    
Moisture  
Dew Point 62 °F    
Average Humidity 63    
Maximum Humidity 93    
Minimum Humidity 26    
Precipitation  
Precipitation 0.00 in 0.09 in 1.54 in (1988)
Month to date precipitation 0.73  
Year to date precipitation 11.59  
Snow  
Snow 0.00 in 0.00 in 0.00 in (2002)
Month to date snowfall 0.0  
Since 1 June snowfall 0.0  
Since 1 July snowfall 0.0  
Snow Depth -    
Sea Level Pressure  
Sea Level Pressure 30.01 in    
Wind  
Wind Speed 5 mph (ESE)    
Max Wind Speed 14 mph    
Max Gust Speed 18 mph    
Visibility 9 miles    
Events Rain , Thunderstorm    
T = Trace of Precipitation, MM = Missing Value Source: NWS Daily Summary

Daily Weather History Graph

Daily Weather History Graph

Search for Another Location

Airport:

Trip Planner

Search our weather history database for the weather conditions in past years. The results will help you decide how hot, cold, wet, or windy it might be!

Date:

Astronomy

Jul. 08, 2013 Rise Set
Actual Time 6:15 AM CDT 9:19 PM CDT
Civil Twilight 5:41 AM CDT 9:53 PM CDT
Nautical Twilight 4:57 AM CDT 10:36 PM CDT
Astronomical Twilight 4:06 AM CDT 11:27 PM CDT
Moon 6:47 AM CDT (7/8) 9:20 PM CDT (7/8)
Length of Visible Light 16h 12m
Length of Day
15h 04m
New Moon, 0% of the Moon is Illuminated
Jul 8
New Moon
Jul 15
First Quarter
Jul 22
Full
Jul 29
Last Quarter
Aug 6
New

Hourly Weather History & Observations

Time (CDT) Temp. Heat Index Dew Point Humidity Pressure Visibility Wind Dir Wind Speed Gust Speed Precip Events Conditions
12:15 AM 71.2 °F - 63.7 °F 77% 30.04 in 10.0 mi East 6.9 mph - N/A   Scattered Clouds
12:35 AM 71.2 °F - 63.5 °F 76% 30.03 in 10.0 mi East 5.8 mph - N/A   Mostly Cloudy
12:55 AM 70.9 °F - 63.5 °F 77% 30.03 in 10.0 mi East 4.6 mph - N/A   Mostly Cloudy
1:15 AM 70.7 °F - 63.5 °F 78% 30.04 in 10.0 mi Calm Calm - N/A   Scattered Clouds
1:35 AM 68.9 °F - 63.5 °F 83% 30.04 in 10.0 mi Calm Calm - N/A   Mostly Cloudy
1:55 AM 69.8 °F - 63.9 °F 81% 30.05 in 10.0 mi Calm Calm - N/A   Overcast
2:15 AM 70.2 °F - 63.5 °F 79% 30.04 in 10.0 mi Calm Calm - N/A Rain Light Rain
2:35 AM 69.4 °F - 64.4 °F 84% 30.03 in 10.0 mi Calm Calm - N/A   Scattered Clouds
2:55 AM 68.5 °F - 64.6 °F 87% 30.01 in 10.0 mi SSW 5.8 mph - N/A   Clear
3:15 AM 67.1 °F - 63.9 °F 89% 30.01 in 10.0 mi Calm Calm - N/A   Clear
3:35 AM 66.2 °F - 63.3 °F 90% 30.00 in 7.0 mi Calm Calm - N/A   Clear
3:55 AM 66.0 °F - 63.3 °F 91% 30.00 in 7.0 mi Calm Calm - N/A   Clear
4:15 AM 64.9 °F - 62.2 °F 91% 30.00 in 7.0 mi Calm Calm - N/A   Clear
4:35 AM 64.4 °F - 61.7 °F 91% 30.00 in 2.0 mi Calm Calm - N/A   Clear
4:55 AM 63.9 °F - 61.5 °F 92% 30.00 in 3.0 mi Calm Calm - N/A   Clear
5:15 AM 64.2 °F - 61.7 °F 91% 30.02 in 3.0 mi Calm Calm - N/A   Clear
5:55 AM 62.8 °F - 60.4 °F 92% 30.03 in 1.8 mi ENE 4.6 mph - N/A   Mist
6:15 AM 63.5 °F - 61.3 °F 93% 30.05 in 3.0 mi ESE 3.5 mph - N/A   Clear
6:35 AM 64.0 °F - 61.9 °F 93% 30.05 in 3.0 mi SSE 8.1 mph - N/A   Clear
6:55 AM 66.0 °F - 63.7 °F 92% 30.06 in 5.0 mi Calm Calm - N/A   Scattered Clouds
7:15 AM 66.2 °F - 63.7 °F 92% 30.07 in 4.0 mi Calm Calm - N/A   Clear
7:35 AM 66.7 °F - 64.0 °F 91% 30.04 in 4.0 mi ESE 4.6 mph - N/A   Clear
7:55 AM 68.2 °F - 64.9 °F 89% 30.05 in 5.0 mi SSE 3.5 mph - N/A   Clear
8:15 AM 69.4 °F - 64.8 °F 85% 30.07 in 7.0 mi North 3.5 mph - N/A   Clear
8:35 AM 69.8 °F - 64.9 °F 84% 30.07 in 7.0 mi NE 5.8 mph - N/A   Scattered Clouds
8:55 AM 69.8 °F - 64.9 °F 84% 30.07 in 7.0 mi NNE 3.5 mph - N/A   Mostly Cloudy
9:15 AM 70.9 °F - 65.1 °F 82% 30.07 in 5.0 mi NE 4.6 mph - N/A   Haze
9:35 AM 71.4 °F - 65.7 °F 82% 30.07 in 5.0 mi East 5.8 mph - N/A   Haze
9:55 AM 72.3 °F - 65.7 °F 79% 30.05 in 7.0 mi Calm Calm - N/A   Mostly Cloudy
10:15 AM 75.7 °F - 66.0 °F 72% 30.06 in 10.0 mi Calm Calm - N/A   Scattered Clouds
10:35 AM 76.3 °F - 65.8 °F 70% 30.05 in 10.0 mi Calm Calm - N/A   Clear
10:55 AM 78.6 °F - 66.4 °F 66% 30.05 in 10.0 mi East 3.5 mph - N/A   Clear
11:15 AM 80.2 °F 82.5 °F 66.6 °F 63% 30.04 in 10.0 mi East 4.6 mph - N/A   Clear
11:35 AM 81.3 °F 83.3 °F 65.7 °F 59% 30.04 in 10.0 mi NNE 3.5 mph - N/A   Clear
11:55 AM 82.6 °F 84.1 °F 64.4 °F 54% 30.04 in 10.0 mi ENE 3.5 mph - N/A   Clear
12:15 PM 83.7 °F 85.1 °F 64.4 °F 52% 30.03 in 10.0 mi ENE 5.8 mph - N/A   Clear
12:35 PM 85.3 °F 85.9 °F 62.4 °F 46% 30.03 in 10.0 mi Calm Calm - N/A   Clear
12:55 PM 87.4 °F 87.7 °F 62.1 °F 42% 30.03 in 10.0 mi East 5.8 mph - N/A   Clear
1:15 PM 87.6 °F 87.7 °F 61.2 °F 41% 30.03 in 10.0 mi ENE 5.8 mph - N/A   Clear
1:35 PM 89.2 °F 88.7 °F 60.1 °F 37% 30.02 in 10.0 mi East 9.2 mph - N/A   Clear
1:55 PM 90.0 °F 89.1 °F 59.2 °F 35% 30.03 in 10.0 mi ENE 6.9 mph - N/A   Clear
2:15 PM 90.7 °F 90.1 °F 59.4 °F 35% 30.02 in 10.0 mi East 6.9 mph 16.1 mph N/A   Clear
2:35 PM 91.8 °F 90.9 °F 58.6 °F 33% 30.02 in 10.0 mi SE 10.4 mph - N/A   Scattered Clouds
2:55 PM 93.0 °F 91.4 °F 56.5 °F 29% 30.02 in 10.0 mi SSE 6.9 mph - N/A   Mostly Cloudy
3:15 PM 94.1 °F 93.1 °F 57.9 °F 30% 30.01 in 10.0 mi ESE 6.9 mph - N/A   Scattered Clouds
3:35 PM 92.3 °F 90.7 °F 56.5 °F 30% 30.00 in 10.0 mi SE 6.9 mph 16.1 mph N/A   Scattered Clouds
3:55 PM 93.6 °F 92.1 °F 56.5 °F 29% 30.00 in 10.0 mi SSE 12.7 mph 17.3 mph N/A   Scattered Clouds
4:15 PM 93.2 °F 91.0 °F 54.7 °F 27% 30.00 in 10.0 mi SE 10.4 mph 16.1 mph N/A   Scattered Clouds
4:35 PM 93.7 °F 91.4 °F 54.5 °F 26% 29.99 in 10.0 mi SE 10.4 mph - N/A   Clear
4:55 PM 92.5 °F 90.4 °F 55.4 °F 28% 29.98 in 10.0 mi SE 9.2 mph 17.3 mph N/A   Clear
5:15 PM 93.0 °F 91.4 °F 55.9 °F 29% 29.97 in 10.0 mi SSE 13.8 mph 18.4 mph N/A   Clear
5:35 PM 91.0 °F 89.7 °F 57.6 °F 32% 29.97 in 10.0 mi SSE 11.5 mph 18.4 mph N/A   Scattered Clouds
5:55 PM 91.0 °F 90.5 °F 59.5 °F 35% 29.96 in 10.0 mi SE 9.2 mph 17.3 mph N/A   Scattered Clouds
6:15 PM 91.4 °F 91.4 °F 61.0 °F 36% 29.96 in 10.0 mi South 12.7 mph 18.4 mph N/A   Mostly Cloudy
6:35 PM 91.6 °F 91.3 °F 60.6 °F 35% 29.96 in 10.0 mi SSE 8.1 mph - N/A   Scattered Clouds
6:55 PM 90.5 °F 90.4 °F 60.8 °F 37% 29.95 in 10.0 mi SSE 8.1 mph 11.5 mph N/A   Scattered Clouds
7:15 PM 89.6 °F 90.1 °F 62.6 °F 40% 29.94 in 10.0 mi SE 11.5 mph 18.4 mph N/A   Scattered Clouds
7:35 PM 89.8 °F 90.4 °F 62.6 °F 40% 29.94 in 10.0 mi SE 12.7 mph - N/A   Clear
7:55 PM 90.0 °F 90.6 °F 63.0 °F 40% 29.96 in 10.0 mi SE 13.8 mph - N/A   Clear
8:15 PM 89.1 °F 90.0 °F 63.0 °F 42% 29.96 in 10.0 mi SE 12.7 mph - N/A   Clear
8:35 PM 88.0 °F 89.0 °F 63.5 °F 44% 29.97 in 10.0 mi ESE 10.4 mph - N/A   Clear
8:55 PM 86.2 °F 87.1 °F 63.1 °F 46% 29.97 in 10.0 mi East 10.4 mph - N/A   Clear
9:15 PM 85.1 °F 86.1 °F 63.5 °F 48% 29.97 in 10.0 mi East 9.2 mph 16.1 mph N/A   Clear
9:35 PM 77.5 °F - 64.2 °F 63% 29.97 in 10.0 mi ENE 10.4 mph 16.1 mph N/A   Clear
9:55 PM 77.0 °F - 64.4 °F 65% 29.98 in 10.0 mi East 9.2 mph - N/A   Clear
10:15 PM 77.0 °F - 64.4 °F 65% 29.97 in 10.0 mi East 9.2 mph - N/A   Clear
10:35 PM 77.0 °F - 64.6 °F 65% 29.98 in 10.0 mi East 6.9 mph - N/A   Clear
10:55 PM 76.6 °F - 64.6 °F 66% 29.98 in 10.0 mi East 6.9 mph - N/A   Clear
11:15 PM 75.6 °F - 64.9 °F 69% 29.99 in 10.0 mi ENE 5.8 mph - N/A Thunderstorm Clear
11:35 PM 74.7 °F - 65.3 °F 73% 30.02 in 10.0 mi NW 4.6 mph - N/A Thunderstorm Scattered Clouds
11:55 PM 75.4 °F - 66.4 °F 73% 30.05 in 10.0 mi North 10.4 mph 16.1 mph N/A Rain , Thunderstorm Light Thunderstorms and Rain